{"data":{"norad_id":68647,"epoch":"2026-05-24T10:09:02.225088Z","epoch_age_seconds":128047,"freshness":"FRESH","line1":"1 68647U 26075M   26144.42294242  .00000044  00000+0  37990-4 0  9996","line2":"2 68647  88.9864 323.4377 0010881  80.3697 279.8692 13.66001667  6595","mean_motion":13.66001667,"eccentricity":0.0010881,"inclination_deg":88.9864,"raan_deg":323.4377,"arg_perigee_deg":80.3697,"mean_anomaly_deg":279.8692,"bstar":3.799e-5,"rev_number":659,"period_min":105.41714807439,"perigee_km":1005.9171917164,"apogee_km":1022.0038743678,"semimajor_km":7392.0975330421,"source":"CELESTRAK","updated_at":"2026-05-25T13:38:07.992954Z"}}